Hourly Data Report for September 08, 2020

BRIER ISLAND
NOVA SCOTIA
Current Station Operator: ECCC - MSC

44°17'09.000" N
66°20'48.000" W
15.80 m
8200604
71988
WVU

Download Data

Hourly Data (September 2020)
Hourly Data Report for September 8, 2020
TIME Temp Definition
°C
Dew Point Definition
°C
Rel Hum Definition
%
Wind Dir Definition
10's deg

Wind Spd Definition
km/h
Visibility Definition
km
Stn Press Definition
kPa
Hmdx Definition


Wind Chill Definition


Weather Definition


00:00 15.0 15.0 100 14 13   101.99     LegendNANA
01:00 15.1 LegendMM LegendMM 14 16   101.96     LegendNANA
02:00 15.3 15.3 100 14 16   101.93     LegendNANA
03:00 15.3 15.3 100 13 17   101.89     LegendNANA
04:00 15.1 15.1 100 13 17   101.90     LegendNANA
05:00 15.1 15.1 100 12 16   101.89     LegendNANA
06:00 15.1 15.1 100 12 18   101.91     LegendNANA
07:00 15.4 15.4 100 13 15   101.93     LegendNANA
08:00 15.8 15.8 100 15 18   101.96     LegendNANA
09:00 16.1 16.1 100 15 19   102.03     LegendNANA
10:00 16.3 16.3 100 15 17   102.07     LegendNANA
11:00 16.0 16.0 100 15 17   102.11     LegendNANA
12:00 16.6 16.5 99 15 13   102.12     LegendNANA
13:00 16.2 15.5 95 15 15   102.07     LegendNANA
14:00 15.9 15.4 97 15 17   102.08     LegendNANA
15:00 16.6 15.8 95 15 12   102.03     LegendNANA
16:00 16.8 15.8 93 15 11   102.06     LegendNANA
17:00 17.8 16.5 92 19 8   102.11     LegendNANA
18:00 14.4 13.8 96 16 12   102.13     LegendNANA
19:00 13.3 LegendMM LegendMM 16 12   102.15     LegendNANA
20:00 13.2 LegendMM LegendMM 16 13   102.20     LegendNANA
21:00 13.1 13.1 100 16 13   102.22     LegendNANA
22:00 12.9 12.9 100 16 14   102.24     LegendNANA
23:00 13.2 13.2 100 16 13   102.24     LegendNANA

Notes on Data Quality.

Legend

  • E = Estimated
  • M = Missing
  • NA = Not Available*
  • [empty] = Indicates an unobserved value
Date modified: